timestamp,wind_dir_avg,wind_spd_max_dir,wind_spd_avg,wind_spd_gust,battery_voltage,lat,long
2018-07-12 00:00:00+00:00,228.0,235.0,6.07,7.22,,47.59359,-54.27349
2018-07-12 00:10:00+00:00,229.0,230.0,6.35,7.03,,47.59359,-54.27349
2018-07-12 00:30:00+00:00,231.0,232.0,6.16,6.53,,47.59359,-54.27349
2018-07-12 00:40:00+00:00,228.0,232.0,5.4,6.29,,47.59359,-54.27349
2018-07-12 00:50:00+00:00,237.0,246.0,6.5,8.13,,47.59359,-54.27349
2018-07-12 01:00:00+00:00,212.0,231.0,4.37,5.85,,47.59359,-54.27349
2018-07-12 01:10:00+00:00,234.0,235.0,7.14,7.9,,47.59359,-54.27349
2018-07-12 01:20:00+00:00,239.0,243.0,5.44,6.24,,47.59359,-54.27349
2018-07-12 01:30:00+00:00,230.0,229.0,5.49,6.1,,47.59359,-54.27349
2018-07-12 01:40:00+00:00,219.0,218.0,5.66,6.34,,47.59359,-54.27349
2018-07-12 01:50:00+00:00,223.0,221.0,5.7,6.25,,47.59359,-54.27349
2018-07-12 02:00:00+00:00,238.0,237.0,5.85,6.47,,47.59359,-54.27349
2018-07-12 02:10:00+00:00,228.0,228.0,5.75,6.12,,47.59359,-54.27349
2018-07-12 02:20:00+00:00,225.0,225.0,5.12,5.44,,47.59359,-54.27349
2018-07-12 02:30:00+00:00,231.0,231.0,5.45,6.09,,47.59359,-54.27349
2018-07-12 02:40:00+00:00,232.0,231.0,5.59,5.85,,47.59359,-54.27349
2018-07-12 02:50:00+00:00,225.0,225.0,4.64,5.19,,47.59359,-54.27349
2018-07-12 03:00:00+00:00,201.0,203.0,3.74,4.76,,47.59359,-54.27349
2018-07-12 03:10:00+00:00,207.0,208.0,2.74,3.01,,47.59359,-54.27349
2018-07-12 03:20:00+00:00,263.0,254.0,1.51,1.84,,47.59359,-54.27349
2018-07-12 03:30:00+00:00,298.0,296.0,0.92,1.31,,47.59359,-54.27349
2018-07-12 03:40:00+00:00,199.0,179.0,0.44,0.74,,47.59359,-54.27349
2018-07-12 03:50:00+00:00,209.0,216.0,1.53,1.98,,47.59359,-54.27349
2018-07-12 04:00:00+00:00,164.0,165.0,2.03,2.24,,47.59359,-54.27349
2018-07-12 04:10:00+00:00,176.0,177.0,2.2,2.35,,47.59359,-54.27349
2018-07-12 04:20:00+00:00,203.0,199.0,1.15,1.3,,47.59359,-54.27349
2018-07-12 04:30:00+00:00,189.0,195.0,1.96,2.2,,47.59359,-54.27349
2018-07-12 04:40:00+00:00,196.0,195.0,1.59,1.72,,47.59359,-54.27349
2018-07-12 05:10:00+00:00,183.0,194.0,1.52,1.74,,47.59359,-54.27349
2018-07-12 05:20:00+00:00,166.0,167.0,1.32,1.44,,47.59359,-54.27349
2018-07-12 05:30:00+00:00,183.0,183.0,1.57,1.63,,47.59359,-54.27349
2018-07-12 05:40:00+00:00,184.0,192.0,0.85,1.12,,47.59359,-54.27349
2018-07-12 05:50:00+00:00,123.0,133.0,0.72,1.12,,47.59359,-54.27349
2018-07-12 06:00:00+00:00,336.0,322.0,0.25,0.37,,47.59359,-54.27349
2018-07-12 06:10:00+00:00,79.0,79.0,0.79,0.91,,47.59359,-54.27349
2018-07-12 06:20:00+00:00,74.0,72.0,1.96,2.14,,47.59359,-54.27349
2018-07-12 06:30:00+00:00,90.0,83.0,1.19,1.77,,47.59359,-54.27349
2018-07-12 06:40:00+00:00,112.0,117.0,0.81,1.14,,47.59359,-54.27349
2018-07-12 07:10:00+00:00,96.0,86.0,0.85,1.19,,47.59359,-54.27349
2018-07-12 07:20:00+00:00,121.0,124.0,2.12,2.77,,47.59359,-54.27349
2018-07-12 07:30:00+00:00,108.0,102.0,0.88,1.42,,47.59359,-54.27349
2018-07-12 07:40:00+00:00,107.0,104.0,1.54,1.74,,47.59359,-54.27349
2018-07-12 07:50:00+00:00,110.0,120.0,1.54,1.97,,47.59359,-54.27349
2018-07-12 08:00:00+00:00,153.0,153.0,1.54,1.64,,47.59359,-54.27349
2018-07-12 08:10:00+00:00,188.0,190.0,1.7,1.77,,47.59359,-54.27349
2018-07-12 08:20:00+00:00,271.0,273.0,1.71,1.77,,47.59359,-54.27349
2018-07-12 08:30:00+00:00,291.0,293.0,1.48,1.57,,47.59359,-54.27349
2018-07-12 08:40:00+00:00,319.0,316.0,1.27,1.49,,47.59359,-54.27349
2018-07-12 08:50:00+00:00,322.0,322.0,1.57,1.65,,47.59359,-54.27349
2018-07-12 09:00:00+00:00,349.0,345.0,2.07,2.18,,47.59359,-54.27349
2018-07-12 09:10:00+00:00,5.0,6.0,7.17,8.15,,47.59359,-54.27349
2018-07-12 09:20:00+00:00,9.0,10.0,7.05,7.14,,47.59359,-54.27349
2018-07-12 09:30:00+00:00,12.0,13.0,6.72,6.85,,47.59359,-54.27349
2018-07-12 09:40:00+00:00,13.0,13.0,6.42,6.95,,47.59359,-54.27349
2018-07-12 09:50:00+00:00,15.0,14.0,5.29,6.17,,47.59359,-54.27349
2018-07-12 10:00:00+00:00,17.0,14.0,4.93,5.99,,47.59359,-54.27349
2018-07-12 10:10:00+00:00,17.0,15.0,5.77,6.77,,47.59359,-54.27349
2018-07-12 10:20:00+00:00,17.0,16.0,6.02,6.75,,47.59359,-54.27349
2018-07-12 10:30:00+00:00,25.0,21.0,3.91,4.72,,47.59359,-54.27349
2018-07-12 10:40:00+00:00,12.0,6.0,4.02,6.49,,47.59359,-54.27349
2018-07-12 13:30:00+00:00,24.0,18.0,2.64,3.11,,47.59359,-54.27349
2018-07-12 13:40:00+00:00,42.0,44.0,2.6,2.74,,47.59359,-54.27349
2018-07-12 13:50:00+00:00,359.0,359.0,1.5,1.66,,47.59359,-54.27349
2018-07-12 14:00:00+00:00,102.0,88.0,0.6,1.15,,47.59359,-54.27349
2018-07-12 14:10:00+00:00,63.0,60.0,3.2,3.34,,47.59359,-54.27349
2018-07-12 14:20:00+00:00,49.0,52.0,2.59,2.91,,47.59359,-54.27349
2018-07-12 14:30:00+00:00,50.0,50.0,4.42,4.53,,47.59359,-54.27349
2018-07-12 14:40:00+00:00,63.0,63.0,5.14,5.64,,47.59359,-54.27349
2018-07-12 14:50:00+00:00,63.0,64.0,4.14,4.36,,47.59359,-54.27349
2018-07-12 15:00:00+00:00,51.0,52.0,4.03,4.22,,47.59359,-54.27349
2018-07-12 15:10:00+00:00,71.0,71.0,4.86,5.08,,47.59359,-54.27349
2018-07-12 15:20:00+00:00,65.0,67.0,3.89,4.43,,47.59359,-54.27349
2018-07-12 15:30:00+00:00,2.0,8.0,2.03,2.57,,47.59359,-54.27349
2018-07-12 15:40:00+00:00,35.0,35.0,3.2,3.33,,47.59359,-54.27349
2018-07-12 15:50:00+00:00,41.0,40.0,3.52,3.81,,47.59359,-54.27349
2018-07-12 16:00:00+00:00,47.0,49.0,4.42,4.66,,47.59359,-54.27349
2018-07-12 16:10:00+00:00,83.0,83.0,4.0,4.3,,47.59359,-54.27349
2018-07-12 16:20:00+00:00,69.0,70.0,3.54,3.68,,47.59359,-54.27349
2018-07-12 17:20:00+00:00,72.0,72.0,7.01,7.82,,47.59359,-54.27349
2018-07-12 17:30:00+00:00,75.0,76.0,7.65,8.3,,47.59359,-54.27349
2018-07-12 17:40:00+00:00,71.0,74.0,9.04,10.23,,47.59359,-54.27349
2018-07-12 17:50:00+00:00,82.0,86.0,7.97,9.38,,47.59359,-54.27349
2018-07-12 18:00:00+00:00,78.0,76.0,7.67,9.62,,47.59359,-54.27349
2018-07-12 18:10:00+00:00,74.0,75.0,5.42,5.96,,47.59359,-54.27349
2018-07-12 18:20:00+00:00,80.0,82.0,5.14,5.79,,47.59359,-54.27349
2018-07-12 18:30:00+00:00,66.0,57.0,3.35,4.41,,47.59359,-54.27349
2018-07-12 18:40:00+00:00,53.0,52.0,5.82,6.39,,47.59359,-54.27349
2018-07-12 18:50:00+00:00,53.0,65.0,2.98,3.65,,47.59359,-54.27349
2018-07-12 19:00:00+00:00,83.0,84.0,2.28,3.35,,47.59359,-54.27349
2018-07-12 19:10:00+00:00,241.0,243.0,1.6,2.38,,47.59359,-54.27349
2018-07-12 19:20:00+00:00,227.0,214.0,1.43,2.04,,47.59359,-54.27349
2018-07-12 19:30:00+00:00,156.0,166.0,3.85,7.54,,47.59359,-54.27349
2018-07-12 19:40:00+00:00,136.0,136.0,4.26,5.32,,47.59359,-54.27349
2018-07-12 19:50:00+00:00,152.0,149.0,9.2,13.09,,47.59359,-54.27349
2018-07-12 20:00:00+00:00,144.0,142.0,10.78,13.8,,47.59359,-54.27349
2018-07-12 20:10:00+00:00,157.0,157.0,13.42,16.1,,47.59359,-54.27349
2018-07-12 20:20:00+00:00,150.0,152.0,11.6,14.26,,47.59359,-54.27349
2018-07-12 20:30:00+00:00,152.0,153.0,12.42,14.38,,47.59359,-54.27349
2018-07-12 20:40:00+00:00,147.0,150.0,11.54,13.41,,47.59359,-54.27349
2018-07-12 20:50:00+00:00,148.0,149.0,13.41,17.73,,47.59359,-54.27349
2018-07-12 21:00:00+00:00,151.0,145.0,14.04,17.06,,47.59359,-54.27349
2018-07-12 21:10:00+00:00,155.0,149.0,12.09,14.91,,47.59359,-54.27349
2018-07-12 21:20:00+00:00,161.0,157.0,14.53,17.02,,47.59359,-54.27349
2018-07-12 21:30:00+00:00,162.0,157.0,11.88,13.49,,47.59359,-54.27349
2018-07-12 21:40:00+00:00,161.0,165.0,10.53,11.95,,47.59359,-54.27349
2018-07-12 21:50:00+00:00,160.0,160.0,11.01,12.81,,47.59359,-54.27349
2018-07-12 22:00:00+00:00,156.0,154.0,9.3,10.16,,47.59359,-54.27349
2018-07-12 22:10:00+00:00,151.0,154.0,9.48,11.53,,47.59359,-54.27349
2018-07-12 22:20:00+00:00,149.0,151.0,9.16,11.51,,47.59359,-54.27349
2018-07-12 22:30:00+00:00,143.0,150.0,6.13,7.38,,47.59359,-54.27349
2018-07-12 22:40:00+00:00,146.0,147.0,5.28,5.75,,47.59359,-54.27349
2018-07-12 23:40:00+00:00,320.0,321.0,7.86,8.44,,47.59359,-54.27349
2018-07-12 23:50:00+00:00,302.0,303.0,7.58,8.3,,47.59359,-54.27349
